Regional Weather Roundup
Issued by NWS Memphis, TN

Home | Current Version | Previous Version | Text Only | Print | Product List | Glossary On
Versions: 1 2 3 4 5 6 7 8 9 10 11 12 13 14 15 16 17 18 19 20 21 22 23 24 25 26 27 28 29 30 31 32 33 34 35 36 37 38 39 40 41 42 43 44 45 46 47 48 49 50
000
ASUS44 KMEG 081810
RWRMEG
MEMPHIS CWA HOURLY WEATHER ROUNDUP
NATIONAL WEATHER SERVICE MEMPHIS TN
1200 PM CST THU DEC 08 2016

...WEST TENNESSEE...

CITY           SKY/WX    TMP DP  RH WIND       PRES   REMARKS
MEMPHIS INTL   PTSUNNY   37  18  46 NW10      30.51F WCI  30
6HR MIN TEMP:  34; 6HR MAX TEMP:  37;

NWS MEMPHIS      N/A     36 N/A N/A MISG        N/A
JACKSON        MOSUNNY   36  20  52 N9        30.49F WCI  29
6HR MIN TEMP:  32; 6HR MAX TEMP:  36;

BOLIVAR        SUNNY     37  19  48 NW10G16   30.48F WCI  30
LEXINGTON      SUNNY     37  16  41 NW8       30.44F WCI  31
DYERSBURG      MOSUNNY   34  16  47 NW8       30.51F WCI  27
6HR MIN TEMP:  30; 6HR MAX TEMP:  34;

UNION CITY     SUNNY     32  14  47 N14       30.49S WCI  22
PARIS          SUNNY     30  12  47 NW9       30.46F WCI  22
HUNTINGDON     SUNNY     34  14  44 NW8       30.46F WCI  27


...EASTERN ARKANSAS...

CITY           SKY/WX    TMP DP  RH WIND       PRES   REMARKS
JONESBORO      MOSUNNY   33  14  45 N9G18     30.54F WCI  25
6HR MIN TEMP:  29; 6HR MAX TEMP:  34;

WEST MEMPHIS   PTSUNNY   36  17  46 N13       30.53F WCI  27
6HR MIN TEMP:  32; 6HR MAX TEMP:  36;

BATESVILLE     CLOUDY    34  12  40 NW6       30.56F WCI  29
6HR MIN TEMP:  28; 6HR MAX TEMP:  34;

NEWPORT        MOSUNNY   36  12  37 NW15        N/A  WCI  27
6HR MIN TEMP:  28; 6HR MAX TEMP:  36;

WALNUT RIDGE   MOSUNNY   34  12  40 NW14      30.55F WCI  24
6HR MIN TEMP:  27; 6HR MAX TEMP:  34;

BLYTHEVILLE    MOSUNNY   40  20  44 N14       30.53F WCI  32
6HR MIN TEMP:  31; 6HR MAX TEMP:  40;

NW BLYTHEVILLE PTSUNNY   34  18  51 NW12G23   30.53F WCI  25
SEARCY         MOSUNNY   38  13  35 NW10      30.57F WCI  31
6HR MIN TEMP:  32; 6HR MAX TEMP:  38;

STUTTGART      CLOUDY    37  19  48 N13       30.56S WCI  29
6HR MIN TEMP:  34; 6HR MAX TEMP:  37;

PINE BLUFF     CLOUDY    38  22  52 N8G18     30.56F WCI  32
6HR MIN TEMP:  36; 6HR MAX TEMP:  39;

MONTICELLO     MOSUNNY   42  26  53 VRB6      30.54F
6HR MIN TEMP:  38; 6HR MAX TEMP:  42;



...NORTH MISSISSIPPI...

CITY           SKY/WX    TMP DP  RH WIND       PRES   REMARKS
TUPELO         CLOUDY    40  21  46 NW12      30.46F WCI  33
6HR MIN TEMP:  38; 6HR MAX TEMP:  41;

OXFORD         CLOUDY    37  21  52 N12G18    30.49F WCI  30
BATESVILLE     CLOUDY    39  26  58 N9        30.51F WCI  33
6HR MIN TEMP:  37; 6HR MAX TEMP:  41;

OLIVE BRANCH   PTSUNNY  N/A N/A N/A N12G23    30.49F
TUNICA         CLOUDY    34  23  64 N15G21    30.54F WCI  24
CLARKSDALE     SUNNY     39  21  48 N21       30.53F WCI  29
CORINTH        CLOUDY    39  19  45 N14G20    30.45F WCI  31
GREENWOOD      CLOUDY    44  25  47 N13       30.49F
6HR MIN TEMP:  41; 6HR MAX TEMP:  44;

COLUMBUS       CLOUDY    43  27  53 N13       30.43F
6HR MIN TEMP:  41; 6HR MAX TEMP:  43;

STARKVILLE     CLOUDY    41  25  52 N7        30.46F
GOLDEN TRIANGL MOSUNNY   43  25  49 N12G18    30.40F


...SOUTHEAST MISSOURI...

CITY           SKY/WX    TMP DP  RH WIND       PRES   REMARKS
KENNETT        MOSUNNY   34  14  44 N10G17    30.52F WCI  26
WEST PLAINS    SUNNY     30  11  45 NW13      30.53F WCI  20
6HR MIN TEMP:  20; 6HR MAX TEMP:  30;

POPLAR BLUFF   CLOUDY    32  12  43 NW15      30.52F WCI  22
6HR MIN TEMP:  25; 6HR MAX TEMP:  32;

CAPE GIRARDEAU SUNNY     33  13  43 NW12      30.50F WCI  24
6HR MIN TEMP:  23; 6HR MAX TEMP:  33;



...NORTHWEST ALABAMA...

CITY           SKY/WX    TMP DP  RH WIND       PRES   REMARKS
MUSCLE SHOALS  CLOUDY    40  23  50 NW9       30.43F WCI  34
6HR MIN TEMP:  38; 6HR MAX TEMP:  40;



...MIDDLE TENNESSEE...

CITY           SKY/WX    TMP DP  RH WIND       PRES   REMARKS
NASHVILLE      PTSUNNY   40  17  39 W10G17    30.41F WCI  33
6HR MIN TEMP:  33; 6HR MAX TEMP:  40;

CLARKSVILLE    MOSUNNY   35  16  45 NW12      30.44F WCI  27
6HR MIN TEMP:  30; 6HR MAX TEMP:  35;

COLUMBIA       SUNNY     39  21  48 NW8       30.39F WCI  34


...WESTERN KENTUCKY...

CITY           SKY/WX    TMP DP  RH WIND       PRES   REMARKS
PADUCAH        SUNNY     33  12  41 W9        30.47F WCI  25
6HR MIN TEMP:  26; 6HR MAX TEMP:  33;

FORT CAMPBELL  SUNNY     34  16  47 NW7       30.43F WCI  28
6HR MIN TEMP:  29; 6HR MAX TEMP:  34;



...CENTRAL ARKANSAS...

CITY           SKY/WX    TMP DP  RH WIND       PRES   REMARKS
LITTLE ROCK    PTSUNNY   39  15  37 N15       30.57F WCI  31
6HR MIN TEMP:  33; 6HR MAX TEMP:  40;



SKY/WX REPORTED AS FAIR MEANS FEW OR NO CLOUDS BELOW
12 THOUSAND FEET.




USA.gov is the U.S. government's official web portal to all federal, state and local government web resources and services.